Résultats de la compétition "Moyenne distance avant la Nationale NE Dijon 27/03/2010" du 27-03-2010 organisée par le club 2109
     
  Télécharger le fichier CSV.  
     
     

 Circuit "B"

Licence Nom Prénom Temps CN
précédent
Score sur
la course
Différence
3292DODINCeline0:32:3064296769+340
11475GODEFROYBruno0:33:1266366626-10
9486VERCELLOTTICapucine0:34:2059616408+447
9874AVEDIKIANVincent0:34:3163996373-26
6658CHATAINGAmelie0:34:3760926355+263
19587BOUCHETCharlotte0:34:5164986313-185
14665SZYMANOWSKIValentin0:35:0052826285+1003
7260SUTTEROlivier0:35:5160276136+109
4836D'HARREVILLEMelanie0:35:5561376125-12
10451RAIMBAULTPhilippe0:37:1352905911+621
6480D'HARREVILLEKenny0:38:0745415772+1231
8728GAILLARDAlizee0:38:2260245734-290
12773OBSTETARPerrine0:38:5855285646+118
20772BAJTOSOVAHana0:39:0357775634-143
6479D'HARREVILLERenaud0:39:3856725551-121
13669DESREUMAUXArthur0:39:4755535530-23
147COUPATLaure0:40:0454035491+88
15016GUINOTRémi0:40:2453965445+49
14733FERNANDESLudvik0:40:30N/A5432N/A
1557CHATELONLucile0:40:4155055407-98
17576JOLYPhilippe0:41:1063095344-965
22703GILLETJulien0:41:11N/A5342N/A
8359MONTERRATAmandine0:41:5653545246-108
17002BOVEROSeverine0:42:3343465170+824
21495EPANCHINAEvgenia0:43:2345865071+485
8639BILQUEZHugo0:44:4044834925+442
8514VASSYMargaux0:44:4953124909-403
745TINCHANTEstelle0:45:3942244819+595
10561DUPOIRIEUXJules0:45:5363054795-1510
17170VUILLEMINGuillaume0:46:4647224704-18
15787ROCHEFanny0:46:5754874686-801
7259SUTTERAriane0:47:1146144662+48
16117TARDYLaetitia0:47:1451994658-541
6522IMBERTAdeline0:47:3149134630-283
7000GRENOUILLATLise0:47:3146874630-57
17505MAGLIONEJonathan0:48:1345604563+3
10745MAINERoxane0:48:1454474561-886
16143WANTIERLoic0:48:4944014506+105
20648MALAKMaxence0:48:4949464506-440
13628SIMONQuentin0:49:0440144484+470
2892MOULIERECamille0:49:1046464474-172
3301BOISSONNETYolande0:49:5536404407+767
20907CLEMENTMaxime0:49:5733684404+1036
20596ESQUISStéphanie0:50:2140064369+363
5906D'HARREVILLEAurelie0:50:2243324368+36
7979CHRISTSarah0:50:4647974333-464
20214PECQUEURFlorian0:51:2745594276-283
13911JANKECHKarine0:51:4839844247+263
12523DOREAlexandre0:51:5037594244+485
16029TEMPORELLISophie0:52:0750934221-872
2470MOUCHETTESabrina0:52:3639284182+254
19241VADURELPauline0:52:3937754178+403
14676BORCHORST RICARDClarissa0:52:4344764173-303
20629KIRILOVAurélie0:53:0530024144+1142
14227DESRUMAUXMarie0:53:0550224144-878
7715SANDEVOIRClaire0:53:1756884129-1559
15739BELLIOlivier0:54:0144814073-408
11476DEBOCQMAINEAgnes0:55:0642663993-273
7301DUPOIRIEUXCloe0:55:3643313957-374
9439MANSUYP-Yves0:56:0541163923-193
11434SAUVAGEElsa0:56:2141873904-283
13688FRANCOISAline0:57:5734213796+375
3871MONJAUZEMarion0:58:0742593785-474
2377MAKOVICKAVanessa0:58:1032433782+539
2473COLINA-Claire0:58:1303779N/A
9426LERICHECamille0:58:1839803773-207
22103GAULARDAntoine0:59:1826873710+1023
22851AUGAYFlorent1:00:05N/A3661N/A
20187FALCOEstelle1:00:4226953624+929
743RIZZOTTOHelene1:01:2842603579-681
720CLOEZVeronique1:01:3040063577-429
7852TASSINElodie1:01:3338473574-273
826LAVIALLEFlorence1:01:3439303573-357
20363GUILLOTMaxime1:02:0221843546+1362
5464DENAIXMaylis1:02:1840363531-505
19652MISZOVITSAndrea1:02:3934043511+107
7048HAGARDVirginie1:02:5921803493+1313
16105REMILLEUXAngelique1:03:0131383491+353
15310BROUSSEIsabelle1:03:0939173484-433
22647HENRYBéatrice1:03:37N/A3458N/A
22352DUPAQUIERGeoffrey1:04:34N/A3407N/A
13933BREDOUXGaspard1:04:3937513403-348
912LOUVETEloise1:06:1634993320-179
15247SANCHEZMarlene1:08:4134903203-287
6796REVELQuentin1:08:5703191N/A
18931MAUVILLYKarine1:09:1328263178+352
19065BENOITAnne1:09:5637993146-653
1088ROBERTStephanie1:12:12N/A3047N/A
10843BLINGwennaelle1:14:3625282949+421
17899DEPERSINIsabelle1:15:4729352903-32
23160BOUHEYEmmanuel1:15:49N/A2902N/A
6931GARROTMathilde1:16:5633392860-479
19740MEMBREYAurore1:17:1618722847+975
10903RAVENELManon1:17:2635672841-726
9619PECHSTEINAlice1:20:5928872717-170
22389HENRIOT-COLINClaire1:21:00N/A2716N/A
17764CHOUKROUNGyongyike1:21:2629882701-287
15767ROUSSEAUMickael1:21:5435402686-854
10805TOUZEAUClaire1:34:2623292330+1
20882FERLETBénédicte1:48:0431312036-1095
8116GARROTSophieN/A33130-3313
23161ROUGEMONClémentN/AN/A0N/A
22393HENRIETMarie-pierreN/AN/A0N/A
21414HUETMarionN/A00N/A
23079MERCIERAgnèsN/AN/A0N/A
8445FINASCelineN/A48850-4885
4837D'HARREVILLEKarineN/A49420-4942

  Indice de confiance du circuit (moyenne des différences entre CN et score sur la course des 3 à 10 premiers) : 49






 Retour